Regional Weather Roundup
Issued by NWS

Home | Current Version | Previous Version | Graphics & Text | Print | Product List | Glossary On
Versions: 1 2 3 4 5 6 7 8 9 10 11 12 13 14 15 16 17 18 19 20 21 22 23 24 25 26 27 28 29 30 31 32 33 34 35 36 37 38 39 40 41 42 43 44 45 46 47 48 49 50
000
ASUS45 KBOU 101007
RWRCO

WEATHER ROUNDUP FOR COLORADO
NATIONAL WEATHER SERVICE DENVER/BOULDER CO
300 AM MST WED FEB 10 2016

NOTE: "FAIR" INDICATES FEW OR NO CLOUDS BELOW 12000 FEET WITH NO
SIGNIFICANT WEATHER AND/OR OBSTRUCTIONS TO VISIBILITY.

COZ001>005-013-030-031-101100-
...NORTHWEST COLORADO...

CITY           SKY/WX    TMP DP  RH WIND       PRES   REMARKS
CRAIG          CLOUDY    -2  -5  87 CALM      30.46S
HAYDEN         CLOUDY    18  10  73 E17       30.44S WCI   2
MEEKER         CLOUDY     9   4  80 NE3       30.45S
MOUNT WERNER   NOT AVBL
STEAMBOAT SPGS CLOUDY    13  11  93 CALM      30.46S
WALDEN         CLOUDY     9   1  72 SE8       30.43S WCI  -4
$$

COZ006>008-011-101100-
...WEST CENTRAL VALLEYS...

CITY           SKY/WX    TMP DP  RH WIND       PRES   REMARKS
GRAND JUNCTION CLOUDY    21  19  92 NE3       30.46S
MONTROSE       CLOUDY    23  14  68 S9        30.49R WCI  13
EAGLE          CLOUDY    10   9  92 E3        30.55R
RIFLE          CLOUDY    14   9  80 E8        30.49S WCI   3
DELTA          CLOUDY    26  21  80 E5        30.48S WCI  21
NUCLA          CLOUDY    27  19  74 SE7       30.49S WCI  19
$$

COZ017>023-064>068-101100-
...SOUTHWEST COLORADO...

CITY           SKY/WX    TMP DP  RH WIND       PRES   REMARKS
DURANGO        CLOUDY    14  10  84 NE5       30.43S WCI   6
CORTEZ         CLOUDY    20  16  84 E8        30.44R WCI  10
PAGOSA SPRINGS CLOUDY    17  11  80 CALM      30.44S
TELLURIDE      CLOUDY    28   5  37 SE10      30.50S WCI  19
WOLF CREEK PAS CLOUDY    30 -15  13 CALM      30.57S
$$

COZ009-010-012-014-032>034-037-058>063-101100-
...CENTRAL COLORADO...

CITY           SKY/WX    TMP DP  RH WIND       PRES   REMARKS
ASPEN          CLOUDY    13   5  70 S3        30.46R
BUENA VISTA    CLOUDY    19  11  69 W6        30.43S WCI  11
COPPER MTN     CLOUDY    30 -13  15 W21G30    30.51S WCI  17
BERTHOUD PASS  FAIR      21  10  63 W33G40    30.46F WCI   2
COTTONWOOD PAS CLOUDY    37 -17   9 W13G24    30.44F
GUNNISON       CLOUDY    -8 -27  37 NE5       30.59R WCI -19
KREMMLING      HAZE      -2  -8  78 CALM      30.55R VSB 3/4
LEADVILLE      CLOUDY    13  -2  51 N5        30.46F WCI   5
MONARCH PASS   CLOUDY    25   0  33 W21G29    30.61S WCI  10
SALIDA         NOT AVBL
SUNLIGHT       CLOUDY    30   7  37 CALM        N/A
WILKERSON PASS CLOUDY    30  -9  17 NW16G29   30.45F WCI  19
$$

COZ069>075-101100-
...SAN LUIS VALLEY/SANGRE DE CRISTO MOUNTAINS...

CITY           SKY/WX    TMP DP  RH WIND       PRES   REMARKS
ALAMOSA        CLOUDY    14  11  87 NE6       30.44S WCI   5
LA VETA PASS   CLOUDY    27  12  54 S6        30.43F WCI  20
SAGUACHE       CLOUDY    28  10  47 NW17      30.44S WCI  16
$$

COZ035-036-038>040-101100-
...NORTHERN COLORADO FRONT RANGE...

CITY           SKY/WX    TMP DP  RH WIND       PRES   REMARKS
DENVER INTL AP CLOUDY    39  15  37 SW16      30.16F
DMNS CITY PARK   N/A     39  11  31 SE15      30.19S
AURORA         CLEAR     39  13  35 SW13      30.19F
FRONT RANGE AP   N/A     39  14  35 SW15      30.17F
ERIE MUNI ARPT CLOUDY    31  18  58 SW5       30.16S WCI  27
BOULDER MUN AP CLOUDY    55   7  14 SW7       30.16S
CENTENNIAL     CLOUDY    43  12  28 SW16      30.20F
BROOMFIELD     CLOUDY    52   9  17 NW22G29   30.18F
FORT COLLINS   CLOUDY    28  19  69 CALM      30.15F
LONGMONT       CLOUDY    33  16  49 NW3       30.17S
$$

COZ041-046-047-076>085-087-088-101100-
...PIKES PEAK/PALMER DIVIDE AND SOUTHERN FOOTHILLS...

CITY           SKY/WX    TMP DP  RH WIND       PRES   REMARKS
COLO. SPRINGS  CLEAR     37   8  30 N12       30.24F
A. F. ACADEMY  CLOUDY    31   8  37 VRB3      30.24F
SCHRIEVER AFB  FAIR      47   2  15 NW20G25   30.24F
ELLICOTT       NOT AVBL
FALCON         NOT AVBL
FORT CARSON    CLOUDY    35  10  35 NW8       30.22F WCI  29
LIMON          CLOUDY    24  14  65 NW9       30.18F WCI  14
MONUMENT HILL  CLOUDY    36   3  25 SW12      30.26F
TRINIDAD       CLOUDY    35  15  44 W20       30.27F WCI  24
$$

COZ042>045-048>051-090-091-101100-
...NORTHEAST COLORADO...

CITY           SKY/WX    TMP DP  RH WIND       PRES   REMARKS
GREELEY ARPT   CLOUDY    19  16  86 W7        30.16S WCI  10
AKRON          CLOUDY    33  21  61 SW18      30.11F WCI  22
BURLINGTON     CLOUDY    32  22  66 W13       30.13F WCI  22
WRAY           CLEAR     31  24  76 W12       30.11F WCI  22
STERLING       CLOUDY    27  23  86 S6        30.11F WCI  20
HOLYOKE        CLEAR     34  28  80 W9        30.09F WCI  26
FORT MORGAN    CLOUDY    28  22  78 W7        30.13F WCI  21
$$

COZ086-089-092>099-101100-
...SOUTHEAST COLORADO...

CITY           SKY/WX    TMP DP  RH WIND       PRES   REMARKS
PUEBLO         CLOUDY    27  20  75 CALM      30.22F
LA JUNTA       CLOUDY    32  23  69 W10       30.21F WCI  24
LAMAR          CLOUDY    33  25  72 W14       30.18F WCI  23
SPRINGFIELD      N/A     29  19  66 VRB5      30.20F WCI  24
$$



USA.gov is the U.S. government's official web portal to all federal, state and local government web resources and services.